Wind_Speed
51 51 52 53 55 55 54 54 53 54 55 56 55 54 53 52 52 52 53 52 50 50 50 49 47 46 46 46 46 45 45 45 46 47 47 49 51 54 57 57 56 53 47 46 48 47 46 44 43 44 45 47 48 49 50 50 50 50 52 52 51 50 50 50 48 46 43 42 41 38 35 33 33 36 40 42 43 42 41 39 38 36 35 34 34 34
50 51 53 54 55 54 53 53 53 53 54 54 53 52 50 49 49 51 51 50 48 48 48 47 44 43 45 46 45 44 44 45 45 46 47 49 51 53 56 56 55 52 48 48 50 49 46 45 44 45 46 47 47 47 47 48 49 49 50 51 49 48 47 48 48 46 46 44 38 33 32 32 33 38 43 44 44 44 41 39 37 36 35 34 34 33
51 52 54 54 55 55 54 54 54 54 53 53 52 51 50 49 49 50 50 49 47 46 46 45 42 42 44 45 45 44 44 45 45 46 47 48 49 51 55 55 53 51 50 51 51 49 47 46 45 45 46 47 47 47 47 46 48 49 49 48 46 45 45 46 45 42 41 39 34 31 29 31 35 39 43 44 44 44 40 38 37 36 34 33 33 32
52 53 55 55 55 55 55 55 55 54 53 53 52 51 50 49 49 49 48 47 45 43 44 44 42 42 44 45 45 45 44 45 45 45 47 47 48 51 53 53 51 50 50 51 51 49 47 45 45 46 46 47 47 47 47 46 47 48 48 45 43 43 44 44 43 40 36 34 33 30 29 36 42 41 42 43 43 41 38 37 36 35 34 32 31 31
53 54 55 56 56 56 55 55 55 54 53 52 52 51 51 49 48 47 45 45 43 41 42 42 41 42 43 44 45 45 45 45 45 45 47 48 49 51 51 52 51 50 50 49 49 48 45 45 46 45 45 46 47 47 47 47 47 47 46 43 43 43 43 44 43 40 36 34 34 32 35 40 41 38 38 39 39 39 37 35 35 35 33 31 30 29
54 55 56 56 56 56 55 54 54 53 52 51 51 51 50 48 46 44 43 43 43 41 40 40 42 42 42 44 44 45 45 45 45 46 47 48 50 50 50 51 51 50 50 48 47 45 44 45 45 44 44 44 44 45 45 45 45 45 43 41 41 42 41 42 41 38 36 36 36 35 36 36 35 36 38 38 38 38 36 35 35 33 32 30 29 28
55 56 57 56 55 55 54 53 52 51 50 50 50 49 47 46 44 44 43 42 42 41 38 39 41 41 41 44 44 44 45 45 45 46 47 49 51 50 50 51 51 50 50 48 47 45 45 44 43 41 39 39 40 41 42 42 42 40 37 37 37 37 37 38 37 37 37 37 37 35 34 34 36 40 42 41 39 37 35 34 33 32 31 30 28 27
57 57 57 56 55 53 52 52 51 49 47 47 47 46 45 46 45 43 43 42 41 40 37 38 40 40 40 43 44 43 44 44 44 46 48 49 51 50 49 50 50 50 49 47 46 45 44 41 39 36 35 34 36 38 38 36 34 31 28 30 31 32 34 35 34 34 35 38 39 36 34 34 35 39 43 43 41 38 34 32 32 32 31 30 29 28
58 57 57 56 53 51 51 51 49 47 46 45 44 44 45 46 45 43 42 41 40 39 37 38 40 39 38 41 43 42 41 43 44 45 47 49 50 50 49 48 49 48 46 45 45 44 41 39 37 35 34 34 35 35 31 26 23 22 21 23 27 32 34 33 31 30 32 34 34 30 31 34 38 40 43 43 40 36 33 31 32 31 31 31 30 29
59 58 56 54 50 50 52 50 46 45 45 44 43 44 45 45 44 42 40 40 39 38 37 38 39 39 37 39 43 42 40 42 43 43 44 47 48 48 47 46 45 45 44 44 44 43 42 39 37 37 36 35 33 26 19 17 17 18 20 24 31 38 36 31 30 28 25 26 25 24 26 32 36 39 41 40 36 33 31 31 31 31 32 31 31 31
60 58 54 50 49 50 50 46 45 45 44 43 42 43 43 43 43 41 40 40 38 37 38 38 39 37 35 38 43 42 40 41 41 42 44 45 46 46 45 43 42 41 42 42 43 43 42 39 38 38 36 34 29 20 18 23 25 28 31 35 38 42 39 32 28 25 23 24 24 24 28 34 39 42 43 40 35 32 31 31 30 31 31 31 30 31
59 54 49 48 48 48 46 45 44 44 43 42 42 41 41 42 42 40 39 38 37 38 39 39 38 35 34 38 42 41 39 39 39 42 44 44 44 44 42 41 40 40 40 41 42 43 42 39 38 37 34 31 25 23 26 37 40 40 40 38 36 38 38 31 27 27 28 28 26 26 31 38 42 44 44 40 37 35 34 32 32 31 31 30 30 31
55 49 47 46 47 46 44 44 44 44 44 42 40 38 38 39 39 37 37 37 38 40 40 39 36 33 34 38 41 41 39 37 38 41 42 42 42 41 40 39 38 38 39 40 42 43 40 37 36 33 31 29 28 30 36 45 47 44 40 38 35 35 35 33 32 33 33 32 31 29 33 39 41 42 42 40 38 38 35 32 31 31 30 30 30 30
50 47 46 46 46 45 44 44 45 45 44 40 37 35 35 37 37 35 36 39 40 41 41 38 34 32 35 39 41 41 38 36 37 40 41 41 41 40 38 38 37 38 39 40 42 41 37 34 33 32 31 33 38 44 47 48 46 41 39 41 42 40 37 33 34 37 37 37 37 33 32 36 40 40 40 39 38 38 37 34 31 30 30 29 29 29
46 45 45 46 46 46 44 45 45 44 41 38 36 34 34 36 36 36 38 39 39 40 39 36 32 32 35 38 40 40 37 35 36 39 41 41 40 40 39 39 39 39 40 42 42 39 35 32 32 32 34 38 44 50 50 48 45 42 41 44 47 47 42 35 33 37 38 39 38 36 34 33 36 38 36 35 36 37 36 33 31 30 29 27 28 28
43 43 45 46 46 46 45 45 43 41 39 38 36 34 35 37 37 37 38 38 38 38 37 35 33 33 35 37 38 37 35 35 36 39 41 41 41 41 40 40 40 41 42 43 41 37 35 33 33 35 38 40 44 46 48 49 45 43 46 49 50 50 46 38 34 36 38 40 39 39 39 33 31 33 33 33 33 30 29 28 28 28 26 26 27 28
42 42 43 45 45 45 44 43 41 39 39 37 35 35 37 37 36 37 37 37 38 37 36 36 34 34 35 35 36 36 36 35 37 39 42 42 42 41 40 41 41 42 42 40 37 35 34 34 35 38 39 40 42 44 47 49 46 45 50 53 52 51 48 42 39 38 39 40 40 42 43 38 32 31 32 31 28 27 27 25 24 25 26 28 29 28
41 42 42 43 43 43 42 40 39 38 37 36 35 36 37 36 36 37 37 37 36 35 36 36 34 33 34 35 35 36 36 36 38 41 42 43 43 41 41 41 41 41 40 37 36 35 35 35 37 40 41 42 44 45 47 50 49 46 49 52 52 51 48 45 42 41 41 41 42 42 43 42 37 31 29 28 28 28 28 27 27 28 29 29 28 28
40 41 41 42 42 42 40 38 37 36 36 35 36 37 36 35 36 37 37 36 35 35 36 36 34 33 34 36 36 36 36 37 39 40 42 43 42 41 41 40 40 39 38 36 36 36 36 37 40 42 44 45 46 47 49 51 50 47 47 50 50 49 48 45 43 42 42 43 44 43 42 43 42 36 32 32 33 34 33 34 35 33 29 26 26 27
39 39 40 41 41 41 39 37 36 36 36 36 36 36 35 35 36 37 37 37 36 36 36 36 34 32 34 37 38 36 37 38 39 38 40 42 41 40 39 39 38 38 36 36 36 36 37 39 42 44 44 45 45 46 49 51 49 47 46 46 46 46 47 46 45 44 44 43 43 43 43 44 44 43 40 39 39 40 40 40 38 34 28 26 26 27
38 37 38 39 39 39 38 37 37 37 36 36 36 36 36 36 36 36 37 37 37 37 37 35 33 33 36 38 39 38 37 38 39 37 38 41 41 40 39 38 38 38 37 37 37 38 39 42 44 44 43 43 44 45 47 49 47 44 44 44 43 43 44 46 47 47 45 44 43 43 42 42 43 43 42 42 43 44 43 42 40 37 33 30 30 30
37 37 37 38 38 38 38 37 37 37 35 35 36 36 36 36 36 36 37 37 37 37 36 35 33 34 38 39 39 39 38 38 40 40 40 40 40 39 39 39 39 38 36 36 37 38 40 42 44 43 41 40 42 44 46 47 44 41 41 41 40 40 41 44 46 48 48 47 46 44 42 41 41 40 41 43 44 45 45 44 42 38 35 34 33 33
37 37 36 36 38 38 37 36 36 36 35 36 37 36 36 35 36 37 37 37 37 36 36 35 34 35 39 38 37 37 38 39 40 41 41 40 39 38 39 38 37 35 35 36 37 39 40 42 41 40 38 38 39 41 43 45 43 39 38 38 37 37 38 40 42 45 47 49 50 50 47 45 44 43 43 43 44 45 45 45 41 38 36 35 35 34
36 35 34 36 38 38 37 37 37 37 37 37 37 36 36 36 36 37 36 35 36 36 35 35 34 35 37 37 36 37 38 40 40 41 42 41 39 38 37 36 35 34 35 37 39 40 40 39 36 33 33 34 34 35 39 42 41 38 36 36 36 36 37 38 40 42 44 47 50 52 51 50 49 49 48 47 46 45 44 43 41 39 38 37 37 37
35 34 34 36 37 37 37 38 38 38 38 37 37 37 38 37 38 38 37 37 37 35 35 35 33 33 36 37 37 38 39 40 41 41 40 40 39 37 37 36 36 36 37 38 40 39 38 38 33 28 29 30 29 31 34 36 37 35 36 37 36 37 38 39 39 41 43 45 48 50 52 53 53 53 53 52 49 47 45 44 43 43 42 41 41 41
34 34 34 35 36 37 38 39 39 39 39 39 39 39 39 39 39 39 38 38 37 35 35 35 33 34 37 38 38 38 40 41 41 40 39 38 37 37 38 38 38 39 39 40 40 39 38 38 34 30 30 29 26 28 30 31 32 31 31 33 34 35 37 38 40 41 41 41 43 45 47 49 50 50 50 50 47 45 44 43 44 45 44 43 43 43
33 33 33 34 34 35 37 39 40 41 40 40 40 39 39 39 39 39 38 38 36 35 34 34 35 37 38 37 38 39 40 41 41 40 40 39 39 39 41 42 42 42 42 40 40 40 39 38 35 33 32 29 26 27 29 30 30 28 28 30 32 34 34 35 36 37 37 38 40 42 44 45 46 46 46 45 44 43 43 43 43 43 44 43 43 44
33 32 33 34 36 37 38 39 41 41 40 40 40 40 40 40 40 39 39 38 37 36 34 32 35 39 39 37 38 39 40 40 41 41 41 41 42 42 44 45 44 45 44 41 40 40 39 38 37 36 33 30 27 28 30 32 32 30 31 33 33 34 35 34 34 34 34 35 38 41 43 44 43 44 44 43 41 40 41 43 43 44 44 44 43 44
33 33 34 36 39 41 40 41 42 42 42 42 41 41 41 41 41 40 40 40 39 37 33 33 36 39 39 38 38 39 39 41 42 43 43 44 45 45 46 46 45 46 46 44 42 40 39 39 41 39 35 31 30 31 33 34 34 33 34 34 33 33 33 32 33 34 35 36 37 38 39 39 38 39 41 40 37 37 39 43 46 47 48 48 47 47
34 34 35 37 40 43 43 44 43 43 43 43 42 42 41 41 41 41 40 41 40 39 37 37 38 39 38 38 38 39 40 41 42 44 45 47 47 48 48 47 47 48 48 47 44 41 39 39 41 41 39 38 37 37 37 35 34 32 31 32 32 33 33 31 29 30 34 37 38 37 37 36 34 36 38 37 35 35 37 40 43 45 47 48 48 48
37 37 37 37 40 44 46 46 44 44 44 43 43 42 42 42 42 42 41 41 41 41 40 40 39 39 38 38 38 39 40 41 42 44 47 49 49 50 50 49 49 50 51 51 47 43 40 41 43 44 44 44 44 41 39 37 36 34 32 32 32 32 34 35 33 32 34 37 38 37 37 36 34 35 37 37 36 35 35 38 40 41 42 43 44 45
39 39 39 38 40 44 46 46 44 44 45 44 44 44 43 43 43 43 43 42 42 42 41 40 40 39 38 38 38 39 40 42 43 45 48 50 51 51 51 51 51 53 54 54 51 46 43 44 47 47 47 48 48 45 43 41 39 38 38 38 37 34 33 35 38 38 39 41 41 40 40 39 37 36 38 38 37 36 37 40 40 40 41 43 44 45
42 43 42 40 40 43 47 47 45 45 46 45 45 46 45 45 44 44 43 44 43 43 41 40 40 40 39 38 38 38 40 42 44 46 49 51 52 53 53 52 53 56 57 57 55 50 46 47 50 51 50 51 51 49 48 45 42 41 40 40 40 40 36 34 37 41 43 44 45 45 43 42 40 40 41 42 41 41 42 44 44 43 45 46 47 48
45 45 44 43 42 43 47 48 47 46 47 47 48 47 46 45 45 44 44 44 44 43 42 41 41 41 40 39 39 38 40 42 44 47 51 53 54 55 55 54 56 58 59 58 57 53 49 49 51 52 53 53 53 52 52 50 47 44 42 41 41 42 39 36 37 41 43 44 46 46 45 45 45 44 45 46 46 47 48 48 47 47 48 48 49 50
48 47 46 45 44 44 46 48 48 47 47 48 49 48 47 46 45 45 45 45 45 45 43 42 42 42 41 41 40 39 39 41 44 47 51 54 56 57 57 56 58 61 60 59 58 56 52 51 52 53 54 55 55 54 54 53 50 46 44 44 44 43 43 43 42 43 43 44 45 46 45 46 47 47 48 49 49 50 50 49 48 48 48 49 50 51
52 50 48 47 46 45 45 47 49 49 49 50 51 49 48 47 46 46 46 46 46 46 45 44 43 43 43 42 41 40 39 41 44 47 51 55 57 59 59 58 60 62 61 59 58 57 56 54 54 54 55 56 56 56 55 54 52 50 48 48 47 46 46 47 47 45 44 45 46 47 47 48 49 49 50 50 51 51 50 49 49 49 50 51 52 53
55 52 50 49 48 46 45 47 49 49 50 50 50 49 48 47 47 47 47 47 47 46 46 46 45 44 44 44 42 41 40 41 43 47 51 55 58 61 61 60 61 63 63 60 58 58 58 57 56 57 57 57 57 57 57 55 53 52 52 52 52 51 51 51 51 49 47 47 49 50 50 50 51 51 52 52 52 53 53 52 52 52 52 52 53 53
58 54 51 50 49 47 46 47 48 49 50 50 49 49 48 47 48 48 48 47 48 47 48 48 46 46 45 45 44 43 42 41 43 47 52 55 59 62 63 62 62 64 64 63 60 59 58 58 59 59 59 59 59 58 57 57 55 53 54 55 56 56 55 55 55 55 54 53 54 54 53 52 52 53 54 54 54 54 54 54 55 55 55 56 56 55
60 55 51 49 49 48 47 48 48 49 50 50 49 49 49 49 49 49 49 49 49 48 48 48 47 47 46 46 46 45 44 43 44 47 51 55 59 62 64 64 64 65 67 66 64 61 59 59 59 59 60 61 61 60 59 58 57 55 54 56 57 58 59 58 59 59 59 59 60 60 59 58 57 57 57 58 58 58 58 58 58 58 59 60 60 61
60 54 49 47 48 49 49 49 49 49 50 50 50 50 50 51 51 51 50 50 49 48 48 48 48 48 47 47 47 47 46 45 45 46 49 54 58 62 65 66 66 67 68 69 68 65 62 61 60 60 60 61 62 63 63 62 61 59 58 58 59 60 61 62 62 63 63 63 63 64 64 63 63 63 62 63 63 63 64 64 64 64 64 64 64 64
61 55 50 47 48 49 50 51 50 50 50 50 50 50 51 52 53 53 51 50 49 49 48 49 49 49 49 48 48 48 48 48 48 48 49 53 58 62 66 68 68 68 69 71 71 69 66 64 63 63 62 61 61 63 65 66 66 65 64 63 62 63 64 64 65 66 66 66 66 66 65 66 67 67 67 67 67 66 66 66 67 67 68 68 68 68
63 57 51 49 49 50 51 52 52 52 51 49 49 50 51 52 53 53 52 51 51 50 50 50 50 50 50 49 49 49 49 49 50 50 50 52 56 61 66 69 70 70 71 72 73 72 71 69 67 66 66 65 63 62 63 66 67 68 68 68 68 67 67 67 68 69 69 69 70 70 69 69 68 68 68 69 69 69 69 69 69 69 70 70 71 71
64 59 54 52 51 52 53 54 54 54 52 50 49 50 51 52 54 54 53 53 53 52 51 51 51 51 51 51 51 51 50 50 51 52 52 53 55 59 63 67 70 71 72 74 74 74 74 74 73 72 70 69 69 67 66 66 67 68 69 70 71 71 71 71 71 71 72 72 73 73 73 72 71 70 69 69 69 70 71 71 72 72 73 73 73 74
63 60 56 53 52 53 54 54 55 55 54 52 51 51 51 53 54 55 55 54 54 54 53 53 53 53 53 52 52 52 52 51 52 52 53 54 55 57 61 65 69 72 73 75 76 76 76 76 77 77 76 74 74 72 71 70 69 70 70 71 72 73 73 74 74 74 74 74 75 76 76 76 76 74 73 72 71 71 70 71 71 71 72 73 74 75
61 60 57 55 53 53 53 54 55 56 55 54 53 53 53 54 55 56 56 56 57 56 56 55 55 55 55 54 53 52 52 53 53 53 54 54 56 58 60 62 66 70 73 75 76 77 78 78 79 80 80 80 79 78 77 75 74 73 73 74 74 74 74 75 76 76 76 76 77 77 78 78 79 79 78 77 76 75 74 73 73 72 72 73 73 74
57 56 55 55 54 53 53 54 55 56 57 56 56 56 56 56 57 57 58 58 59 59 58 58 58 57 57 56 55 53 53 53 54 55 55 55 57 59 60 60 63 67 71 74 76 78 78 79 79 80 81 82 82 82 81 80 79 79 78 77 77 78 78 78 78 78 79 79 79 79 80 80 81 82 82 82 82 82 81 80 80 79 79 79 79 80
53 52 52 52 52 52 52 54 56 57 58 58 58 58 59 59 59 59 59 60 61 61 60 60 60 60 60 59 58 56 55 55 56 56 57 57 58 59 60 61 62 64 67 71 74 77 78 79 80 80 81 82 82 83 83 83 83 83 83 82 81 80 81 81 81 82 82 82 82 83 83 83 84 84 85 86 86 87 87 87 87 87 87 87 87 87
48 48 48 49 49 49 50 52 54 57 59 60 61 61 61 61 62 62 62 63 63 63 63 63 63 63 63 62 61 60 58 58 58 58 59 59 60 61 61 62 62 63 65 67 70 74 77 79 80 80 81 81 82 82 83 84 85 86 86 86 85 84 83 84 84 84 84 85 85 85 86 86 87 87 88 88 89 89 90 90 91 91 92 92 92 92
47 47 48 48 48 49 49 50 52 55 58 60 62 63 63 63 63 64 65 65 66 66 66 66 66 65 64 64 64 63 62 61 61 61 62 62 62 62 62 63 64 64 65 66 67 69 72 75 78 79 81 82 82 82 83 84 85 86 87 87 87 87 86 86 86 85 85 86 86 87 87 87 88 89 89 90 90 91 91 92 92 92 91 91 91 92
46 46 47 47 48 48 48 49 50 52 56 59 61 63 65 65 65 66 66 67 68 68 69 70 69 68 67 67 67 66 65 64 64 64 65 65 65 64 64 64 65 66 67 67 68 69 70 72 74 76 78 81 82 82 83 83 84 85 86 86 87 87 87 87 86 86 85 85 85 85 85 85 86 86 86 86 86 86 87 87 87 88 86 85 84 84
42 43 44 45 46 47 47 48 49 51 53 56 59 61 64 65 67 68 69 69 70 70 71 72 72 72 71 70 70 69 68 67 67 67 67 67 67 67 67 67 67 68 69 69 69 70 71 71 73 74 76 78 79 80 81 82 83 84 84 85 86 86 87 86 86 86 85 85 85 84 84 84 84 84 82 81 81 81 80 80 81 82 82 82 82 82
Wind_Direction
261 262 262 261 260 259 259 260 261 261 261 261 261 261 261 260 259 257 255 254 253 253 253 253 253 253 253 252 251 250 249 247 245 244 243 243 243 244 245 245 245 244 243 244 243 241 238 235 232 229 229 232 236 239 242 244 241 240 243 246 249 252 256 259 264 268 268 271 279 283 284 280 273 272 279 287 291 291 287 282 279 277 274 273 272 271
264 264 264 263 263 263 263 263 262 262 261 261 261 260 260 259 257 255 253 251 250 251 251 251 252 254 253 251 249 249 248 246 245 244 243 242 243 244 246 246 246 245 242 241 241 240 238 236 233 230 230 232 235 239 242 245 245 244 246 249 250 253 256 259 262 265 267 272 276 274 273 270 264 268 279 286 288 288 285 281 280 277 274 272 271 271
266 266 266 266 267 267 266 266 264 263 262 261 259 258 257 256 255 253 252 251 249 250 251 251 252 253 253 251 249 247 246 245 244 244 243 243 243 245 247 247 247 246 243 242 241 240 238 236 234 232 231 232 234 237 240 242 245 246 248 249 250 254 257 260 262 265 269 271 269 266 268 265 263 273 281 283 285 285 284 282 280 277 274 273 271 271
267 268 268 269 269 269 268 267 265 263 262 259 257 256 255 254 253 252 252 251 250 251 252 251 251 252 252 251 249 247 246 244 243 243 243 242 242 243 246 247 247 245 244 243 242 240 239 238 236 233 232 233 234 236 238 240 242 245 248 249 251 253 254 256 259 263 267 267 263 256 252 259 266 274 278 281 283 284 283 283 280 276 274 272 270 270
268 270 270 271 271 271 269 268 265 263 260 258 256 254 253 252 253 253 252 252 252 252 253 251 250 251 251 250 249 247 246 244 242 242 243 242 241 241 244 246 245 243 242 242 242 241 239 237 236 234 233 234 234 235 237 239 241 244 247 250 252 253 253 254 258 264 265 263 262 252 246 257 267 272 275 278 282 285 285 283 279 276 274 271 269 268
271 272 273 273 274 273 271 268 265 262 259 257 254 252 251 251 253 253 251 251 251 250 251 251 250 250 250 249 248 247 246 244 242 241 242 242 241 241 242 244 243 242 241 240 240 239 237 236 235 234 233 234 235 236 237 239 241 244 247 250 252 254 255 258 260 262 261 259 260 255 250 256 263 267 270 274 279 284 284 281 279 276 273 270 268 266
274 274 275 276 276 273 270 267 264 260 258 255 252 250 250 250 250 250 248 248 248 248 248 249 250 249 249 248 246 246 246 245 242 242 241 241 242 240 240 242 242 241 241 239 237 237 236 235 235 235 235 236 237 237 237 238 240 244 248 251 254 255 256 258 259 258 258 258 258 255 252 255 257 260 264 269 276 281 281 279 277 274 271 269 266 264
276 277 279 278 275 271 268 264 260 258 256 253 251 249 248 247 247 246 246 245 247 248 246 247 249 249 249 249 246 245 246 246 243 242 241 241 241 241 239 240 241 241 240 240 238 237 235 235 235 234 233 234 235 236 236 237 241 246 250 254 260 262 257 257 257 256 256 256 256 253 249 250 252 256 264 271 276 278 278 277 276 274 271 268 265 263
277 279 281 278 273 268 263 260 258 256 254 251 249 247 245 244 244 245 245 245 246 247 246 247 249 248 247 250 249 245 245 245 243 243 242 241 241 241 240 239 240 240 240 240 240 238 236 234 232 229 227 227 228 230 233 236 239 243 245 248 254 255 252 252 253 253 253 254 257 256 251 252 256 261 269 274 274 274 274 276 276 274 271 268 265 262
279 281 281 276 269 263 260 259 258 256 253 250 248 245 243 242 243 244 244 245 246 247 248 247 248 248 246 249 251 247 244 244 242 242 243 242 241 240 239 239 239 240 240 239 238 237 235 232 228 225 222 221 221 221 226 232 222 219 226 226 231 239 240 239 246 249 249 250 254 255 251 254 258 263 270 272 270 271 274 276 276 274 271 269 266 264
281 282 279 272 264 261 260 259 258 256 253 251 248 245 243 242 242 243 244 245 247 249 249 247 246 246 246 248 250 246 243 243 241 240 240 240 240 239 238 237 236 236 236 235 235 235 233 229 225 222 219 217 212 197 205 221 209 200 209 213 219 232 233 230 237 242 238 236 240 246 250 254 258 263 268 269 267 269 274 276 276 275 272 269 268 266
282 281 275 267 262 261 260 259 257 256 254 251 248 245 244 242 242 243 245 247 249 250 248 245 244 244 245 247 249 246 242 240 240 240 239 238 238 237 236 234 233 231 232 232 232 232 230 226 223 221 217 213 195 176 201 219 211 202 205 208 216 231 234 227 225 227 227 227 231 241 248 254 260 263 265 265 265 268 272 275 275 274 271 269 268 267
281 276 268 263 261 260 259 257 255 254 251 249 246 244 243 243 242 242 246 247 247 246 245 244 241 241 243 244 246 245 242 238 237 238 237 236 236 235 233 231 229 227 228 228 230 231 228 224 221 217 212 200 176 175 205 218 213 206 202 202 210 224 231 227 219 218 220 221 223 231 243 252 258 260 262 263 264 266 269 272 273 270 268 267 267 268
277 270 264 262 260 257 255 254 252 250 249 248 246 243 242 243 241 239 242 243 242 242 242 242 239 237 241 242 242 242 240 236 234 235 235 234 233 232 230 227 225 222 222 224 226 227 225 221 217 211 204 191 178 185 205 215 214 209 203 204 209 215 221 220 217 218 219 219 221 223 233 248 256 259 262 263 266 270 271 272 272 267 265 267 268 270
270 265 262 260 258 256 253 251 250 250 250 248 244 239 237 238 237 234 236 238 240 241 242 241 238 237 239 240 240 240 237 233 231 232 232 231 230 229 226 224 221 219 219 220 222 221 218 214 210 205 200 194 188 192 203 211 212 209 208 210 212 215 218 215 213 220 222 223 225 224 225 240 252 257 262 266 271 276 274 271 270 267 267 269 270 270
265 262 261 260 259 257 254 252 251 250 248 244 240 235 232 232 233 233 234 236 239 241 242 241 237 235 237 239 240 240 237 231 229 229 230 229 228 226 224 222 220 218 218 219 219 216 212 208 204 202 201 198 193 195 203 208 207 206 209 212 214 216 218 215 212 218 223 224 226 227 226 231 244 253 260 266 270 274 273 269 266 267 271 275 275 273
262 260 259 259 258 257 255 253 250 247 244 241 236 232 229 228 229 232 233 234 236 238 240 239 236 234 235 236 236 237 235 231 228 228 229 229 227 225 223 221 219 219 219 219 218 214 209 205 202 202 201 199 195 197 204 208 208 207 209 211 213 214 216 217 214 215 221 225 226 230 232 231 237 249 258 264 267 270 272 268 262 267 277 281 278 273
262 259 258 257 256 254 253 250 247 244 241 237 232 229 227 225 227 230 233 234 235 236 238 238 236 233 232 233 232 232 232 229 226 227 228 228 227 225 224 222 221 220 219 217 215 212 208 204 203 202 200 197 196 197 203 208 211 212 210 210 212 213 214 216 217 217 221 224 227 232 236 235 237 246 255 261 266 270 270 265 265 275 281 279 275 270
260 259 258 256 252 249 247 246 244 241 237 232 228 226 224 222 224 228 232 234 233 234 236 236 235 232 231 231 231 229 229 227 226 227 227 227 227 226 225 223 222 221 219 216 213 210 206 203 203 204 200 198 196 195 199 205 210 213 211 210 213 214 214 215 218 221 223 225 228 233 237 237 238 244 251 258 263 267 269 270 276 281 279 273 271 268
257 258 259 255 250 246 243 241 239 236 231 228 226 224 222 221 222 226 230 232 232 232 233 234 232 231 231 231 229 229 228 227 225 227 227 227 226 226 225 224 223 221 218 215 212 209 205 202 203 203 200 198 197 196 198 202 205 208 209 211 213 213 213 214 218 222 223 225 231 237 242 244 244 247 250 255 259 262 266 272 277 278 273 268 267 267
256 256 256 253 248 243 239 236 235 233 229 226 224 222 221 221 222 225 228 230 230 230 232 231 229 228 230 231 229 229 228 227 225 226 227 225 224 224 223 223 221 218 215 212 210 207 203 201 202 202 200 198 197 197 197 198 200 203 207 211 213 211 212 215 218 222 222 224 231 239 245 250 251 251 250 252 254 256 260 266 271 272 269 265 264 265
254 254 251 249 245 240 238 235 233 231 227 224 223 221 220 221 223 225 227 228 229 229 231 230 227 226 229 230 229 228 228 226 226 226 226 225 223 221 220 219 218 215 212 209 207 205 202 201 202 202 201 199 198 197 197 198 200 204 209 212 212 212 215 218 220 223 224 226 232 239 245 249 252 252 251 252 253 255 258 263 267 267 265 262 263 263
253 254 251 246 241 238 236 233 231 230 226 223 222 220 220 221 223 226 227 228 229 228 229 229 226 227 228 228 228 227 226 224 223 223 223 223 222 220 218 217 215 211 207 204 202 201 199 199 200 201 203 202 202 201 202 204 205 206 210 213 214 216 220 222 223 224 227 230 235 240 244 248 251 253 255 256 258 260 262 263 263 263 262 261 262 261
252 253 249 243 238 236 234 231 229 227 225 223 222 221 219 219 222 225 226 228 229 227 228 228 227 230 230 228 228 228 226 223 221 220 220 220 218 217 216 214 210 206 202 199 197 196 195 195 195 200 204 204 203 203 207 211 211 212 218 219 219 222 226 228 229 229 229 232 235 239 243 247 251 254 256 259 261 263 265 264 262 261 261 261 261 262
250 249 245 240 236 234 232 230 228 226 224 222 221 220 219 218 221 224 224 225 226 226 226 225 226 231 232 228 227 228 226 224 221 220 220 219 216 213 211 208 205 200 196 193 192 191 190 189 188 194 200 199 200 204 209 214 215 216 224 228 228 229 230 232 234 234 233 234 236 239 242 246 249 252 255 258 261 263 265 264 262 261 261 261 261 262
248 247 244 238 234 233 231 229 228 226 224 222 219 219 219 218 220 223 223 224 224 225 227 225 223 228 231 227 225 225 225 223 220 217 217 216 213 210 206 203 201 195 190 189 189 187 185 185 184 187 190 192 201 209 213 217 216 217 225 232 234 236 236 236 237 237 237 237 238 240 243 245 247 249 252 256 258 260 260 260 260 261 261 261 260 260
245 245 243 236 230 230 231 230 228 226 224 223 221 219 220 220 220 221 223 223 223 224 228 227 225 228 230 227 224 223 222 222 219 214 212 210 208 206 204 201 198 192 187 185 185 183 184 186 184 183 185 193 205 213 217 220 219 219 223 225 230 237 238 238 239 241 241 240 240 241 242 244 246 248 251 254 255 255 255 255 255 257 259 259 258 258
241 242 240 234 228 227 228 229 229 226 225 224 222 220 220 221 221 221 221 222 223 223 225 227 228 229 230 228 226 223 221 220 217 212 209 207 204 203 203 201 196 191 186 185 184 184 185 188 189 187 189 198 207 212 216 219 218 217 219 221 226 234 237 239 242 244 244 245 245 244 244 246 249 251 252 254 254 254 253 251 250 251 254 256 257 259
238 239 237 233 229 227 227 229 229 227 225 224 223 221 220 221 221 221 221 221 222 221 220 224 227 228 228 228 226 224 221 219 215 211 208 205 203 202 203 200 195 190 188 185 185 185 187 191 193 192 194 201 209 213 215 218 219 219 222 225 228 231 234 239 246 248 246 247 249 250 249 248 249 249 252 253 254 254 253 251 250 250 251 254 257 260
234 236 235 232 229 227 226 227 227 227 225 224 224 222 221 221 222 221 221 222 222 221 219 222 226 227 226 226 226 224 221 217 214 210 207 205 203 201 202 199 193 189 188 185 185 187 189 192 193 194 198 205 211 215 214 214 218 222 224 226 229 232 234 235 238 244 245 247 249 250 249 248 245 243 245 247 249 252 254 254 253 254 254 256 260 263
231 233 233 231 229 228 229 228 226 226 225 224 223 223 222 222 222 222 222 222 223 222 221 222 225 226 226 225 225 224 221 217 213 210 207 206 203 201 200 198 193 189 187 185 186 189 191 193 193 196 203 209 212 213 212 212 216 220 222 225 228 232 237 236 232 233 240 244 246 246 246 246 244 239 240 243 246 250 255 256 257 259 260 260 262 266
229 232 233 231 230 230 231 231 227 225 225 224 223 223 223 223 223 222 222 223 223 223 222 223 225 226 226 225 225 224 221 217 212 209 208 206 204 202 200 197 193 190 189 188 190 193 194 193 194 197 203 209 212 212 212 212 215 220 224 228 228 227 230 234 233 234 239 243 245 247 248 247 244 239 238 241 244 248 251 252 254 258 262 264 265 267
228 230 231 231 230 229 232 232 229 225 224 225 224 223 223 224 223 223 223 223 224 224 223 223 224 225 225 225 224 224 222 218 213 210 208 207 205 202 199 197 195 192 191 192 194 197 197 197 197 200 203 208 211 212 213 213 215 220 225 227 227 228 228 232 236 237 240 244 246 248 247 245 243 239 239 241 244 246 249 251 255 258 261 265 267 268
229 230 231 230 229 229 231 233 231 228 225 225 225 225 224 224 224 224 224 225 225 225 225 224 224 224 224 224 224 223 222 219 214 211 209 207 205 203 200 198 195 194 194 195 197 199 201 201 202 204 206 209 211 212 214 214 213 217 223 224 226 229 229 230 236 238 241 245 247 247 246 245 244 242 241 242 244 246 249 254 259 261 263 265 267 268
230 230 230 231 230 229 230 231 231 230 227 226 227 226 225 225 225 225 225 226 226 226 226 225 224 224 224 224 224 223 221 220 217 213 210 208 206 205 202 199 196 195 196 198 200 202 204 205 206 207 209 211 212 213 214 214 213 216 222 224 225 229 230 230 235 240 244 247 248 247 246 244 244 243 244 244 245 246 250 254 258 261 264 265 266 266
230 229 230 231 231 231 231 230 230 230 228 228 229 228 227 226 226 226 226 226 226 227 227 226 225 225 224 224 224 223 221 220 218 215 212 210 208 207 205 202 199 198 199 201 203 206 207 208 209 210 212 213 215 216 216 217 217 218 220 222 223 227 229 230 234 239 242 243 243 243 242 241 241 242 243 244 245 247 249 252 256 260 263 266 267 268
230 230 229 230 231 231 231 231 231 230 229 229 230 231 231 230 229 228 228 228 228 228 228 228 227 226 225 224 224 224 222 220 219 216 214 212 210 209 208 206 203 201 202 203 206 209 211 212 212 214 215 216 216 217 218 220 221 222 222 222 223 225 227 228 230 233 236 237 238 238 239 240 241 242 243 244 246 248 250 254 257 259 262 264 267 269
232 231 229 229 230 231 231 231 232 231 230 230 230 231 232 232 232 232 231 230 230 229 229 229 228 228 227 225 224 224 223 221 220 218 215 214 213 211 210 210 207 206 205 206 207 210 214 216 217 217 218 220 219 219 219 220 222 224 225 226 227 228 228 230 231 233 235 238 239 239 239 241 243 244 246 247 248 250 252 255 258 259 260 262 263 265
234 233 231 229 230 231 231 232 232 231 231 231 230 229 231 232 233 233 233 233 233 232 232 232 231 230 230 228 226 225 224 223 222 219 216 215 215 214 213 213 212 210 209 208 209 211 214 218 220 220 222 223 223 222 222 221 221 224 227 229 231 232 233 233 234 236 238 241 243 243 243 244 245 246 248 250 251 253 254 256 258 259 261 261 262 263
236 235 232 230 229 231 232 233 233 233 232 232 230 230 230 232 233 234 234 235 235 235 235 235 235 233 232 231 229 227 225 224 224 222 219 217 217 216 215 215 215 214 212 212 212 212 214 218 221 223 224 226 226 226 225 224 224 225 226 228 230 233 235 236 237 238 240 243 246 248 249 249 250 250 252 253 255 257 258 259 260 260 260 261 262 264
237 235 232 229 229 230 232 234 235 235 235 234 233 231 231 232 234 235 235 236 236 236 237 237 237 237 235 233 232 230 228 226 225 223 221 219 218 219 218 217 217 217 215 215 215 215 216 218 222 224 226 227 228 229 229 229 229 229 229 230 230 232 234 236 238 239 241 243 246 249 251 253 253 254 255 256 257 258 260 261 262 262 262 262 263 263
237 236 232 228 228 229 232 234 236 237 237 237 236 235 234 234 236 237 238 237 237 237 237 237 237 238 237 236 234 232 230 229 227 226 224 222 220 221 221 220 219 219 218 218 218 219 219 219 222 224 226 227 229 230 232 233 232 232 232 232 233 233 234 236 237 239 241 242 245 247 250 252 254 256 257 258 259 259 260 261 261 262 262 263 263 264
237 237 234 230 227 227 229 232 235 237 238 239 238 238 237 237 237 238 238 239 240 239 239 238 238 238 237 237 237 236 234 231 230 229 227 225 223 223 223 222 222 222 222 221 221 222 222 223 224 225 226 228 229 230 232 234 235 235 235 235 235 236 236 237 238 240 241 243 245 246 248 251 253 255 257 258 260 261 262 262 263 263 263 264 264 264
237 238 237 233 230 229 229 231 234 236 238 239 239 239 239 238 239 239 239 239 240 241 240 240 240 239 238 237 237 237 237 235 234 232 230 229 227 226 225 224 224 224 224 224 225 225 226 226 227 227 227 228 230 231 232 234 236 237 238 238 238 239 239 240 241 241 243 244 245 246 248 250 251 253 255 256 258 259 261 262 263 264 265 266 267 267
237 239 239 237 235 232 231 231 233 236 237 238 238 239 240 239 240 240 240 240 240 240 240 240 241 241 240 239 238 237 237 238 237 236 234 232 231 230 228 226 226 226 227 227 228 228 228 229 230 230 230 230 230 231 232 234 236 238 239 240 241 242 242 243 243 243 244 245 246 247 248 249 251 252 254 255 256 258 259 260 261 262 263 264 266 267
238 240 240 240 239 237 234 233 234 236 237 237 237 237 238 239 240 240 241 241 241 241 240 240 241 241 241 241 240 238 237 238 239 239 237 236 235 233 232 230 229 228 228 229 230 231 231 232 232 233 233 234 234 234 234 235 236 238 240 241 242 243 244 245 246 246 247 248 248 249 250 251 252 253 254 256 257 258 259 259 260 261 262 263 264 265
241 243 243 243 243 242 239 237 236 237 238 239 238 237 237 238 239 240 241 241 242 242 241 240 240 240 241 241 240 239 238 238 239 239 239 238 238 237 235 233 232 231 231 231 232 232 233 234 235 235 235 236 237 237 238 238 239 239 241 242 243 244 245 246 247 248 249 250 252 253 254 254 255 256 257 258 259 260 260 261 262 262 263 264 265 266
245 247 248 248 247 246 245 242 240 240 240 241 241 240 240 239 239 239 240 241 242 242 242 242 241 240 240 240 240 239 238 238 239 239 238 238 238 239 238 237 235 234 234 234 234 234 235 235 237 238 238 238 239 239 240 241 242 242 243 243 245 246 247 248 249 250 251 252 253 254 255 257 258 258 259 260 261 262 263 264 265 265 265 266 266 267
247 248 248 249 249 248 247 245 243 242 242 243 243 243 243 243 242 241 241 241 242 243 243 243 243 241 240 240 240 240 239 238 238 238 239 238 237 237 238 239 238 237 236 235 236 237 237 238 238 239 240 240 241 241 242 243 243 244 245 245 246 247 248 249 251 252 252 253 254 255 256 257 258 259 260 261 262 263 264 265 265 266 267 268 268 268
245 246 247 248 249 249 248 246 245 243 243 244 244 244 245 245 245 244 243 243 243 243 244 245 245 244 243 242 241 241 240 239 238 238 238 238 237 236 236 237 239 239 239 238 237 238 238 239 240 240 241 241 242 242 243 244 245 246 246 247 248 248 249 250 251 253 254 255 255 256 257 257 258 259 260 261 262 263 264 265 265 266 267 267 268 268
246 248 249 250 251 251 251 250 248 246 245 245 245 245 246 246 246 245 245 245 244 244 244 245 246 246 246 244 243 242 241 240 239 239 239 239 239 238 237 236 236 237 239 240 240 240 239 240 240 241 242 242 243 243 244 245 246 247 248 249 250 250 250 251 252 253 254 255 256 257 257 258 259 259 260 260 260 261 262 263 264 265 265 266 266 267
Height
10597 10598 10598 10598 10598 10600 10601 10602 10604 10604 10603 10603 10604 10606 10608 10609 10611 10612 10614 10617 10619 10621 10622 10623 10625 10626 10627 10629 10631 10634 10636 10638 10641 10643 10645 10645 10644 10643 10641 10644 10647 10653 10662 10665 10665 10669 10674 10679 10683 10686 10689 10691 10693 10696 10698 10703 10710 10711 10709 10710 10714 10716 10718 10720 10723 10723 10723 10724 10727 10728 10729 10728 10725 10720 10718 10717 10715 10714 10713 10712 10713 10713 10714 10714 10714 10714
10590 10591 10590 10590 10592 10593 10595 10596 10596 10596 10596 10597 10598 10600 10601 10603 10604 10605 10606 10610 10613 10615 10615 10618 10620 10621 10621 10623 10626 10628 10630 10632 10634 10636 10639 10639 10639 10638 10636 10638 10643 10649 10657 10658 10657 10662 10669 10674 10678 10681 10684 10686 10689 10692 10695 10699 10703 10705 10704 10705 10708 10712 10714 10716 10717 10718 10719 10721 10723 10724 10723 10723 10721 10717 10714 10713 10711 10709 10709 10708 10709 10709 10709 10710 10710 10710
10583 10583 10582 10584 10585 10586 10587 10588 10588 10588 10589 10590 10591 10592 10593 10596 10597 10597 10600 10604 10607 10609 10610 10612 10615 10615 10614 10616 10619 10622 10623 10626 10628 10630 10632 10633 10635 10634 10631 10632 10638 10644 10649 10650 10651 10657 10663 10668 10673 10677 10679 10682 10685 10688 10691 10695 10697 10698 10698 10699 10705 10709 10710 10711 10713 10713 10714 10717 10719 10719 10719 10719 10717 10714 10710 10708 10706 10705 10705 10705 10705 10705 10705 10706 10706 10707
10577 10576 10576 10577 10578 10579 10579 10580 10580 10581 10582 10582 10584 10585 10587 10589 10590 10592 10596 10599 10602 10604 10604 10606 10609 10609 10608 10610 10612 10615 10617 10620 10622 10624 10625 10627 10628 10628 10626 10627 10632 10637 10640 10643 10646 10652 10657 10663 10667 10671 10675 10678 10681 10683 10686 10690 10692 10692 10693 10698 10703 10705 10705 10706 10707 10708 10710 10713 10715 10717 10717 10714 10714 10712 10707 10703 10702 10701 10701 10701 10701 10701 10701 10702 10702 10703
10570 10570 10569 10570 10570 10571 10571 10572 10573 10573 10574 10575 10576 10578 10580 10582 10585 10588 10592 10594 10597 10598 10598 10600 10602 10602 10603 10604 10606 10608 10611 10613 10616 10617 10618 10619 10620 10621 10621 10622 10625 10629 10632 10636 10640 10646 10652 10656 10660 10665 10669 10672 10675 10679 10681 10684 10686 10687 10692 10696 10699 10699 10701 10701 10702 10705 10707 10709 10710 10713 10713 10710 10709 10707 10702 10699 10698 10697 10698 10697 10697 10698 10698 10698 10698 10698
10563 10563 10562 10563 10563 10563 10564 10564 10565 10566 10567 10568 10569 10571 10574 10577 10581 10583 10586 10588 10589 10591 10593 10594 10595 10596 10597 10599 10600 10602 10604 10606 10609 10611 10611 10611 10612 10615 10617 10616 10618 10621 10625 10630 10634 10640 10645 10649 10653 10659 10664 10668 10671 10674 10677 10681 10682 10685 10690 10694 10695 10695 10696 10698 10699 10701 10704 10706 10706 10707 10708 10707 10706 10702 10698 10696 10695 10695 10694 10693 10693 10694 10693 10694 10694 10695
10556 10555 10555 10556 10556 10556 10556 10556 10557 10558 10559 10560 10562 10565 10569 10572 10574 10577 10579 10581 10582 10584 10588 10588 10587 10589 10591 10592 10594 10597 10598 10600 10603 10604 10604 10604 10605 10609 10610 10610 10612 10615 10618 10623 10629 10634 10639 10644 10650 10656 10661 10664 10667 10670 10673 10676 10679 10684 10690 10691 10691 10692 10693 10693 10695 10697 10700 10703 10703 10703 10704 10704 10703 10699 10695 10693 10692 10692 10691 10689 10690 10690 10690 10690 10690 10691
10548 10548 10549 10549 10549 10548 10548 10547 10548 10551 10552 10554 10556 10560 10563 10565 10567 10570 10573 10575 10576 10579 10582 10582 10581 10584 10586 10586 10588 10591 10592 10594 10597 10597 10597 10598 10599 10601 10603 10604 10606 10609 10613 10618 10624 10630 10635 10641 10647 10652 10656 10659 10662 10664 10668 10674 10680 10686 10691 10690 10689 10689 10686 10686 10688 10692 10695 10697 10698 10699 10701 10700 10698 10695 10691 10689 10689 10688 10687 10686 10686 10686 10686 10686 10686 10687
10540 10542 10543 10541 10542 10541 10539 10539 10542 10545 10546 10548 10551 10554 10556 10558 10561 10564 10567 10569 10571 10574 10576 10577 10576 10579 10582 10582 10582 10585 10587 10588 10589 10591 10591 10592 10593 10595 10597 10600 10602 10605 10610 10615 10619 10625 10631 10637 10641 10645 10649 10652 10654 10659 10666 10675 10681 10686 10690 10691 10688 10682 10679 10680 10683 10687 10690 10691 10692 10693 10695 10694 10691 10689 10686 10685 10685 10684 10682 10682 10682 10682 10682 10682 10683 10683
10534 10535 10536 10535 10535 10533 10531 10533 10538 10539 10540 10543 10546 10548 10550 10553 10556 10559 10562 10564 10566 10569 10570 10571 10572 10574 10578 10577 10575 10578 10581 10581 10584 10586 10587 10586 10587 10589 10592 10595 10600 10604 10607 10610 10614 10619 10624 10629 10633 10637 10641 10644 10651 10660 10670 10676 10680 10683 10685 10685 10679 10671 10671 10676 10679 10682 10685 10686 10686 10687 10688 10686 10683 10681 10681 10680 10680 10679 10678 10678 10678 10679 10679 10679 10679 10679
10527 10528 10529 10528 10527 10525 10526 10530 10532 10533 10535 10538 10540 10543 10546 10548 10551 10555 10558 10559 10562 10564 10564 10565 10567 10569 10573 10571 10568 10571 10575 10576 10578 10580 10581 10581 10582 10584 10588 10592 10597 10600 10602 10605 10608 10612 10616 10622 10627 10630 10635 10642 10651 10662 10669 10670 10670 10671 10669 10669 10666 10661 10664 10671 10677 10680 10680 10680 10681 10682 10682 10679 10676 10675 10675 10675 10675 10674 10674 10674 10675 10675 10675 10675 10675 10675
10521 10522 10522 10521 10520 10520 10523 10525 10526 10527 10530 10532 10535 10538 10542 10544 10547 10551 10553 10555 10557 10557 10556 10559 10562 10565 10567 10565 10563 10566 10569 10571 10573 10574 10575 10576 10577 10580 10584 10588 10593 10595 10597 10600 10602 10605 10611 10617 10622 10627 10634 10641 10650 10661 10664 10657 10654 10655 10657 10660 10662 10659 10660 10668 10673 10673 10673 10674 10676 10678 10677 10674 10671 10670 10670 10670 10670 10669 10670 10671 10671 10671 10671 10671 10671 10671
10515 10515 10515 10514 10514 10516 10518 10519 10520 10521 10523 10526 10530 10534 10538 10540 10543 10547 10548 10549 10550 10548 10549 10552 10557 10561 10561 10559 10558 10560 10564 10567 10568 10568 10569 10571 10573 10576 10580 10584 10588 10591 10593 10596 10598 10601 10607 10613 10619 10626 10632 10638 10647 10653 10649 10640 10640 10648 10654 10658 10657 10653 10654 10661 10665 10664 10665 10667 10670 10673 10673 10669 10666 10666 10666 10666 10665 10665 10666 10666 10667 10667 10667 10667 10667 10667
10509 10508 10508 10508 10508 10510 10512 10513 10514 10515 10518 10523 10527 10531 10534 10534 10537 10541 10541 10540 10541 10540 10543 10547 10552 10556 10554 10553 10553 10555 10559 10562 10564 10564 10564 10566 10568 10571 10575 10579 10582 10585 10589 10591 10593 10597 10604 10610 10616 10622 10627 10631 10635 10635 10631 10629 10636 10646 10651 10651 10648 10645 10645 10652 10657 10659 10660 10661 10664 10667 10667 10664 10661 10661 10661 10662 10661 10661 10661 10662 10662 10662 10663 10663 10663 10663
10503 10502 10502 10502 10502 10504 10507 10507 10508 10511 10516 10520 10523 10527 10528 10528 10530 10534 10533 10533 10535 10536 10538 10543 10548 10550 10549 10548 10549 10551 10555 10558 10559 10560 10559 10561 10564 10567 10570 10574 10576 10579 10582 10584 10588 10594 10601 10607 10612 10616 10619 10622 10624 10625 10624 10626 10632 10640 10644 10644 10642 10639 10640 10646 10653 10655 10657 10660 10661 10661 10659 10657 10655 10655 10657 10657 10657 10656 10656 10657 10657 10658 10659 10660 10660 10659
10497 10496 10496 10496 10497 10499 10501 10502 10505 10508 10512 10514 10518 10521 10522 10523 10525 10527 10528 10530 10531 10532 10535 10538 10542 10544 10544 10545 10546 10549 10552 10554 10555 10555 10555 10556 10559 10562 10565 10568 10571 10574 10576 10579 10584 10591 10596 10601 10605 10608 10610 10614 10619 10623 10622 10623 10627 10632 10635 10635 10635 10636 10638 10644 10649 10652 10653 10656 10657 10656 10653 10650 10648 10650 10652 10652 10652 10652 10652 10652 10653 10654 10655 10656 10656 10656
10491 10491 10491 10491 10492 10494 10496 10498 10501 10504 10506 10509 10513 10515 10516 10519 10521 10522 10523 10525 10526 10528 10531 10532 10536 10539 10540 10541 10544 10545 10547 10549 10550 10550 10550 10552 10554 10557 10560 10563 10566 10568 10571 10577 10583 10588 10592 10596 10599 10600 10603 10609 10616 10619 10619 10620 10623 10625 10625 10626 10629 10633 10636 10640 10644 10646 10648 10649 10651 10651 10649 10646 10645 10646 10647 10648 10648 10648 10648 10648 10649 10651 10652 10652 10652 10652
10485 10485 10485 10486 10487 10489 10491 10493 10496 10499 10501 10504 10507 10508 10511 10515 10517 10517 10518 10520 10523 10525 10526 10527 10531 10534 10536 10538 10539 10540 10541 10544 10545 10545 10546 10547 10549 10553 10556 10559 10562 10565 10570 10575 10580 10584 10588 10591 10593 10594 10597 10602 10606 10611 10614 10616 10617 10618 10620 10623 10626 10630 10633 10637 10640 10642 10643 10644 10645 10645 10645 10644 10643 10643 10644 10644 10645 10645 10645 10645 10646 10647 10648 10648 10648 10648
10480 10479 10480 10481 10483 10484 10486 10489 10491 10494 10496 10499 10501 10503 10507 10511 10513 10513 10514 10516 10519 10521 10521 10523 10526 10530 10532 10533 10534 10535 10537 10539 10540 10541 10542 10544 10546 10549 10552 10556 10559 10563 10569 10573 10576 10580 10584 10587 10588 10589 10593 10596 10598 10602 10605 10608 10611 10614 10618 10622 10625 10628 10631 10634 10636 10637 10638 10639 10641 10641 10640 10639 10639 10640 10640 10641 10641 10641 10641 10641 10642 10643 10644 10644 10644 10645
10474 10475 10475 10476 10478 10480 10482 10484 10486 10489 10491 10494 10496 10500 10503 10506 10507 10509 10511 10512 10515 10516 10517 10519 10523 10527 10528 10528 10529 10532 10534 10535 10536 10537 10539 10541 10544 10547 10550 10553 10557 10562 10566 10570 10573 10577 10580 10582 10582 10585 10590 10594 10596 10598 10599 10602 10607 10612 10617 10620 10622 10626 10629 10630 10632 10632 10633 10635 10636 10636 10635 10634 10635 10636 10637 10637 10637 10638 10638 10638 10638 10639 10640 10640 10640 10641
10469 10470 10470 10471 10474 10476 10477 10480 10481 10483 10486 10490 10492 10496 10499 10501 10503 10505 10507 10508 10510 10512 10513 10516 10520 10522 10521 10521 10525 10527 10530 10531 10533 10533 10534 10537 10540 10543 10546 10550 10554 10558 10562 10566 10569 10573 10576 10577 10578 10581 10586 10590 10594 10596 10598 10600 10605 10610 10614 10616 10618 10622 10625 10626 10628 10629 10630 10630 10631 10631 10630 10630 10631 10632 10633 10633 10633 10634 10634 10634 10635 10636 10636 10636 10636 10637
10464 10465 10465 10467 10469 10471 10472 10475 10477 10480 10483 10486 10488 10491 10494 10497 10500 10501 10502 10504 10506 10508 10510 10513 10516 10516 10515 10517 10520 10523 10525 10527 10529 10529 10530 10533 10536 10539 10542 10546 10550 10554 10558 10562 10565 10569 10572 10574 10576 10579 10582 10586 10591 10595 10598 10600 10603 10607 10609 10611 10615 10619 10621 10622 10624 10625 10626 10626 10626 10626 10626 10626 10627 10627 10628 10628 10628 10629 10630 10630 10631 10631 10632 10632 10632 10633
10459 10460 10462 10464 10464 10466 10468 10472 10474 10476 10479 10481 10484 10487 10490 10493 10496 10497 10498 10501 10503 10505 10507 10509 10511 10511 10510 10514 10516 10518 10521 10523 10524 10525 10526 10529 10532 10535 10539 10542 10547 10552 10555 10559 10562 10565 10569 10572 10575 10579 10581 10584 10589 10593 10597 10599 10600 10602 10605 10608 10612 10614 10616 10618 10620 10621 10622 10623 10623 10622 10622 10622 10622 10623 10623 10623 10624 10625 10625 10626 10626 10627 10627 10627 10627 10628
10455 10456 10458 10459 10460 10462 10465 10467 10470 10472 10474 10477 10480 10483 10486 10489 10491 10492 10495 10498 10499 10501 10503 10505 10507 10507 10507 10510 10512 10514 10516 10518 10519 10520 10522 10525 10528 10532 10536 10540 10545 10549 10552 10556 10559 10563 10567 10571 10576 10581 10582 10584 10587 10591 10594 10596 10599 10602 10604 10606 10609 10611 10612 10614 10615 10617 10618 10619 10619 10619 10618 10618 10618 10618 10619 10619 10619 10620 10620 10620 10620 10621 10622 10622 10623 10624
10450 10451 10452 10454 10456 10459 10461 10463 10466 10468 10470 10473 10476 10478 10481 10484 10486 10488 10491 10493 10494 10496 10498 10500 10504 10504 10503 10506 10508 10510 10512 10513 10515 10517 10519 10522 10525 10529 10533 10537 10542 10546 10549 10553 10556 10560 10564 10568 10573 10577 10581 10583 10585 10587 10589 10592 10597 10602 10604 10605 10607 10608 10609 10611 10612 10613 10614 10615 10616 10614 10613 10612 10611 10612 10612 10613 10613 10614 10615 10614 10615 10615 10617 10618 10619 10620
10445 10446 10448 10451 10454 10455 10457 10459 10461 10463 10466 10469 10471 10473 10476 10479 10481 10484 10487 10488 10490 10493 10494 10497 10500 10498 10497 10500 10503 10505 10507 10509 10512 10514 10516 10519 10523 10527 10530 10534 10537 10542 10546 10550 10553 10557 10561 10564 10567 10571 10576 10579 10580 10581 10583 10587 10592 10598 10602 10604 10604 10604 10606 10607 10607 10609 10610 10612 10610 10607 10605 10604 10604 10606 10607 10608 10608 10609 10610 10610 10610 10610 10611 10613 10614 10615
10441 10442 10444 10447 10451 10452 10453 10455 10457 10459 10462 10464 10467 10470 10472 10475 10477 10480 10483 10485 10487 10490 10491 10494 10495 10493 10493 10496 10498 10500 10503 10506 10508 10511 10512 10516 10520 10523 10526 10529 10533 10538 10543 10546 10550 10554 10558 10562 10564 10567 10571 10574 10575 10576 10578 10581 10586 10593 10597 10599 10599 10598 10599 10601 10602 10604 10606 10606 10604 10601 10600 10599 10600 10602 10604 10604 10604 10604 10605 10606 10606 10606 10606 10608 10609 10610
10437 10438 10440 10442 10445 10447 10449 10450 10452 10455 10458 10460 10463 10466 10468 10471 10473 10476 10479 10481 10483 10485 10488 10490 10491 10490 10491 10493 10494 10497 10500 10502 10505 10507 10509 10512 10516 10519 10522 10525 10530 10535 10540 10543 10547 10551 10555 10558 10561 10564 10568 10570 10572 10573 10574 10577 10581 10585 10589 10591 10592 10593 10594 10595 10597 10598 10600 10599 10597 10596 10596 10596 10597 10599 10599 10599 10600 10600 10601 10601 10601 10602 10602 10602 10604 10605
10433 10434 10435 10437 10440 10442 10444 10446 10448 10451 10453 10456 10459 10462 10464 10466 10469 10471 10474 10476 10478 10481 10483 10485 10485 10485 10487 10489 10491 10493 10496 10498 10501 10503 10506 10509 10512 10515 10518 10522 10527 10532 10536 10540 10544 10548 10551 10554 10557 10561 10564 10566 10568 10569 10570 10572 10576 10579 10583 10586 10588 10590 10590 10590 10591 10592 10593 10593 10592 10592 10592 10592 10593 10594 10594 10595 10596 10596 10596 10596 10596 10597 10597 10598 10599 10600
10429 10429 10430 10432 10435 10437 10439 10441 10443 10446 10449 10452 10454 10457 10460 10462 10464 10467 10469 10471 10474 10476 10478 10478 10479 10481 10483 10485 10487 10490 10491 10494 10497 10500 10503 10505 10508 10512 10515 10519 10524 10529 10533 10537 10540 10544 10546 10549 10552 10556 10559 10560 10561 10563 10565 10568 10571 10575 10579 10582 10583 10585 10586 10586 10586 10586 10586 10586 10587 10587 10587 10588 10589 10590 10590 10591 10591 10591 10591 10591 10591 10592 10593 10594 10594 10594
10424 10424 10425 10428 10430 10432 10433 10436 10439 10441 10444 10447 10450 10453 10455 10458 10460 10462 10464 10467 10469 10471 10473 10474 10475 10477 10479 10481 10484 10486 10488 10491 10494 10497 10500 10502 10505 10509 10512 10516 10520 10525 10529 10532 10535 10538 10541 10544 10547 10549 10552 10553 10555 10558 10561 10565 10568 10572 10575 10577 10579 10581 10582 10582 10582 10582 10581 10580 10581 10583 10583 10584 10585 10586 10586 10586 10587 10588 10587 10586 10585 10586 10587 10589 10589 10589
10419 10419 10421 10423 10425 10427 10429 10431 10435 10437 10439 10442 10445 10448 10450 10453 10455 10458 10460 10462 10464 10466 10468 10470 10471 10473 10475 10478 10480 10482 10484 10487 10490 10494 10496 10499 10503 10506 10509 10513 10517 10521 10524 10527 10530 10533 10536 10539 10541 10543 10545 10548 10551 10554 10557 10560 10564 10567 10570 10572 10574 10576 10577 10578 10578 10578 10577 10576 10577 10578 10580 10581 10582 10582 10582 10582 10583 10584 10582 10581 10581 10582 10582 10583 10584 10585
10413 10413 10416 10419 10421 10423 10424 10427 10430 10433 10435 10438 10440 10443 10445 10448 10451 10453 10456 10457 10459 10462 10464 10466 10468 10469 10471 10474 10476 10478 10481 10483 10487 10490 10493 10496 10499 10502 10506 10510 10513 10517 10520 10523 10526 10528 10532 10534 10536 10538 10540 10542 10545 10549 10552 10555 10559 10562 10564 10567 10568 10570 10573 10573 10573 10572 10572 10572 10572 10573 10575 10577 10577 10578 10577 10577 10579 10579 10577 10576 10577 10579 10578 10578 10579 10579
10407 10408 10412 10414 10416 10418 10419 10422 10425 10428 10431 10433 10435 10438 10441 10443 10446 10449 10451 10453 10455 10458 10460 10462 10464 10466 10468 10470 10472 10475 10477 10480 10483 10486 10489 10492 10495 10498 10502 10506 10509 10512 10515 10517 10521 10524 10527 10529 10531 10533 10535 10537 10540 10543 10546 10549 10553 10556 10559 10562 10563 10564 10567 10568 10567 10566 10566 10566 10566 10567 10570 10571 10571 10572 10572 10573 10574 10573 10573 10573 10573 10573 10574 10574 10574 10574
10400 10403 10406 10408 10411 10413 10415 10417 10420 10423 10426 10429 10430 10433 10437 10439 10442 10445 10447 10449 10451 10453 10455 10458 10460 10462 10464 10466 10468 10471 10474 10477 10479 10482 10485 10488 10491 10494 10498 10501 10505 10508 10510 10512 10516 10519 10521 10524 10527 10529 10531 10533 10535 10537 10540 10543 10547 10551 10554 10556 10557 10559 10561 10561 10561 10560 10560 10560 10560 10561 10563 10565 10565 10566 10567 10568 10568 10568 10568 10569 10568 10568 10569 10569 10569 10570
10394 10397 10400 10403 10405 10408 10411 10413 10414 10417 10421 10423 10425 10428 10432 10435 10437 10440 10443 10444 10446 10449 10451 10453 10456 10458 10460 10462 10464 10467 10470 10473 10475 10478 10481 10484 10487 10490 10493 10497 10500 10503 10505 10508 10511 10514 10516 10519 10522 10524 10526 10528 10531 10533 10536 10539 10542 10545 10547 10548 10550 10552 10553 10554 10554 10554 10554 10554 10554 10554 10556 10557 10558 10559 10560 10561 10562 10562 10563 10563 10563 10563 10563 10563 10563 10564
10387 10392 10395 10398 10400 10403 10407 10408 10409 10413 10416 10418 10421 10425 10428 10431 10434 10436 10438 10440 10442 10444 10447 10449 10451 10454 10456 10458 10461 10463 10466 10469 10471 10474 10477 10479 10483 10486 10489 10492 10495 10498 10500 10503 10506 10509 10511 10513 10516 10519 10521 10522 10525 10528 10531 10534 10537 10540 10541 10541 10542 10543 10544 10545 10546 10547 10547 10547 10547 10548 10549 10550 10552 10553 10554 10555 10556 10556 10557 10557 10558 10558 10558 10558 10558 10558
10380 10385 10389 10392 10395 10399 10402 10403 10405 10408 10411 10414 10417 10421 10424 10427 10429 10431 10434 10436 10437 10440 10442 10444 10447 10450 10452 10454 10457 10459 10462 10465 10466 10468 10471 10474 10477 10481 10484 10487 10490 10493 10495 10498 10500 10503 10506 10507 10510 10513 10515 10517 10520 10523 10526 10528 10531 10533 10535 10536 10537 10537 10539 10539 10540 10541 10541 10540 10541 10542 10543 10544 10546 10547 10548 10548 10549 10550 10551 10552 10552 10552 10553 10553 10553 10554
10373 10379 10384 10388 10391 10394 10397 10398 10401 10404 10406 10409 10413 10416 10419 10421 10423 10426 10428 10431 10433 10436 10438 10440 10443 10446 10448 10450 10453 10455 10457 10460 10461 10463 10467 10470 10472 10475 10478 10481 10484 10487 10489 10492 10494 10498 10500 10501 10504 10507 10509 10511 10514 10517 10520 10522 10525 10527 10529 10530 10531 10532 10534 10534 10535 10535 10535 10535 10535 10536 10537 10539 10540 10541 10542 10543 10544 10544 10545 10546 10546 10546 10546 10546 10547 10548
10368 10373 10379 10383 10386 10390 10392 10394 10396 10399 10401 10404 10408 10411 10414 10416 10417 10420 10423 10425 10428 10432 10434 10436 10439 10441 10444 10446 10448 10450 10453 10455 10457 10459 10462 10465 10467 10469 10472 10475 10477 10480 10483 10486 10489 10492 10494 10496 10498 10501 10502 10504 10507 10510 10513 10516 10518 10520 10522 10524 10525 10526 10527 10528 10529 10529 10530 10530 10529 10529 10530 10532 10533 10534 10535 10536 10537 10538 10538 10539 10539 10540 10540 10540 10540 10541
10362 10367 10374 10378 10382 10385 10387 10389 10392 10394 10396 10399 10403 10406 10408 10410 10411 10414 10417 10421 10423 10426 10429 10431 10433 10436 10438 10441 10443 10445 10448 10450 10451 10454 10456 10459 10461 10464 10465 10468 10471 10474 10477 10480 10483 10486 10489 10490 10492 10494 10496 10498 10501 10503 10505 10508 10511 10513 10515 10517 10518 10519 10520 10521 10522 10522 10523 10523 10523 10523 10523 10524 10525 10526 10527 10528 10529 10530 10530 10531 10531 10532 10532 10533 10533 10533
10355 10362 10368 10373 10376 10379 10382 10384 10386 10389 10391 10395 10398 10401 10403 10405 10406 10409 10412 10414 10416 10419 10422 10425 10427 10430 10432 10435 10437 10440 10442 10445 10446 10448 10451 10453 10455 10457 10459 10461 10465 10468 10470 10473 10476 10479 10482 10485 10485 10487 10489 10492 10494 10496 10498 10500 10503 10505 10507 10509 10511 10512 10513 10514 10514 10515 10516 10517 10517 10516 10516 10516 10517 10518 10519 10519 10520 10521 10522 10523 10523 10524 10524 10524 10525 10525
10350 10356 10363 10367 10371 10374 10376 10379 10381 10384 10386 10389 10392 10395 10397 10399 10401 10402 10405 10408 10410 10413 10416 10418 10420 10423 10426 10428 10431 10433 10436 10439 10440 10443 10445 10447 10449 10451 10453 10456 10459 10461 10463 10466 10469 10472 10475 10477 10478 10479 10482 10484 10486 10488 10490 10492 10494 10496 10498 10501 10502 10504 10505 10506 10507 10507 10508 10509 10509 10509 10509 10510 10510 10510 10511 10511 10512 10512 10512 10513 10514 10515 10515 10515 10516 10516
10347 10351 10356 10361 10366 10369 10371 10374 10376 10378 10381 10384 10387 10389 10391 10393 10394 10396 10399 10401 10403 10405 10408 10411 10413 10415 10418 10421 10424 10427 10430 10432 10435 10437 10440 10442 10444 10445 10447 10450 10452 10454 10457 10459 10461 10464 10466 10469 10470 10472 10474 10476 10478 10481 10483 10484 10486 10488 10490 10492 10493 10495 10496 10498 10499 10500 10501 10501 10501 10502 10502 10502 10502 10503 10503 10503 10504 10504 10504 10504 10505 10505 10505 10505 10505 10506
10344 10347 10351 10355 10360 10364 10367 10369 10371 10373 10376 10378 10381 10383 10385 10387 10388 10390 10392 10394 10396 10398 10401 10403 10405 10407 10410 10414 10417 10420 10423 10426 10428 10431 10433 10436 10438 10438 10440 10443 10446 10448 10450 10451 10453 10455 10458 10460 10462 10463 10466 10468 10470 10472 10475 10477 10478 10479 10481 10483 10485 10486 10488 10489 10490 10491 10492 10492 10493 10493 10494 10494 10494 10494 10495 10495 10495 10496 10496 10496 10496 10496 10496 10496 10496 10495
10341 10344 10347 10351 10354 10358 10362 10364 10366 10368 10370 10372 10374 10376 10378 10380 10381 10383 10385 10387 10388 10390 10393 10395 10397 10399 10402 10405 10409 10413 10416 10419 10421 10423 10426 10429 10430 10431 10434 10437 10439 10441 10442 10444 10445 10447 10449 10451 10453 10455 10457 10459 10461 10464 10466 10469 10470 10471 10472 10474 10476 10477 10478 10479 10480 10481 10482 10483 10484 10484 10484 10485 10485 10485 10486 10486 10486 10487 10487 10487 10487 10487 10487 10487 10487 10486
10338 10341 10344 10346 10349 10352 10355 10358 10360 10362 10363 10364 10366 10368 10370 10372 10374 10376 10377 10379 10380 10382 10385 10387 10390 10391 10394 10397 10400 10404 10408 10411 10412 10414 10417 10420 10422 10423 10426 10429 10431 10433 10435 10436 10437 10439 10441 10442 10444 10446 10448 10450 10452 10455 10457 10459 10460 10462 10462 10464 10466 10468 10469 10470 10471 10472 10473 10474 10474 10474 10475 10475 10476 10476 10477 10476 10476 10477 10477 10477 10477 10477 10478 10477 10477 10477
10336 10338 10340 10342 10344 10346 10349 10352 10354 10355 10356 10357 10358 10360 10362 10364 10366 10368 10369 10370 10372 10374 10376 10378 10380 10383 10385 10388 10391 10395 10399 10402 10404 10405 10407 10410 10413 10415 10417 10420 10423 10425 10427 10428 10429 10431 10432 10434 10435 10437 10439 10441 10443 10445 10447 10448 10450 10451 10453 10454 10457 10458 10459 10460 10461 10463 10464 10465 10465 10465 10466 10466 10466 10466 10467 10467 10467 10466 10466 10466 10466 10466 10466 10466 10466 10466
10331 10333 10335 10336 10338 10340 10342 10344 10347 10348 10349 10350 10351 10352 10354 10356 10358 10359 10361 10362 10363 10365 10366 10368 10370 10374 10377 10379 10382 10385 10389 10392 10395 10396 10397 10399 10402 10406 10408 10411 10413 10416 10418 10419 10421 10423 10424 10425 10427 10428 10430 10431 10433 10436 10437 10438 10439 10441 10442 10444 10447 10448 10450 10450 10451 10453 10454 10454 10455 10456 10456 10456 10456 10456 10457 10457 10457 10456 10456 10455 10455 10454 10454 10454 10454 10454
10327 10328 10329 10330 10332 10333 10335 10337 10339 10340 10341 10342 10343 10344 10345 10347 10348 10350 10352 10353 10355 10356 10357 10358 10360 10363 10366 10369 10372 10375 10379 10382 10385 10387 10388 10389 10392 10396 10399 10401 10404 10406 10408 10410 10412 10413 10415 10416 10418 10419 10420 10421 10423 10426 10427 10428 10429 10431 10432 10434 10436 10438 10440 10441 10442 10443 10443 10444 10444 10445 10446 10446 10446 10446 10447 10447 10446 10446 10445 10444 10444 10444 10443 10443 10442 10442
10323 10323 10324 10326 10326 10327 10328 10329 10331 10333 10333 10334 10335 10336 10336 10337 10338 10340 10341 10343 10345 10346 10348 10349 10350 10352 10355 10358 10361 10364 10368 10372 10375 10377 10379 10381 10383 10385 10388 10391 10393 10395 10397 10399 10401 10403 10404 10406 10408 10409 10410 10411 10413 10416 10417 10418 10419 10421 10422 10424 10426 10427 10429 10431 10432 10433 10433 10433 10434 10434 10435 10436 10436 10436 10437 10436 10436 10435 10435 10434 10433 10433 10432 10432 10432 10431